Location: Home
(42.5358°N, 72.7383°W)
Time: 13:29:35
(UTC-05:00)

Tiros 1 despin weight - Visible Passes

Search period start: 06 December 2021 00:00
Search period end: 16 December 2021 00:00
Orbit: 593 x 641 km, 48.2° (Epoch: 05 December)

Date Brightness Start Highest point End Pass type
(mag) Time Alt. Az. Time Alt. Az. Time Alt. Az.
06 Dec ? 17:29:16 10° WNW 17:33:38 63° SSW 17:38:00 10° SE visible
06 Dec ? 19:12:30 10° WSW 19:14:29 13° SW 19:16:00 11° SSW visible
07 Dec ? 17:45:37 10° WNW 17:49:38 35° SW 17:53:40 10° SSE visible
08 Dec ? 18:02:23 10° W 18:05:30 19° SW 18:08:38 10° S visible
10 Dec ? 16:52:44 10° W 16:56:29 28° SW 17:00:14 10° SSE visible
11 Dec ? 17:09:51 10° W 17:12:18 15° SW 17:14:45 10° SSW visible
